Hinckley, MN

7:53 AM CST on December 08, 2019 (GMT -0600)
Hinckley

Weather History for K04W - November, 2019

Change the Weather History Date:

Thursday, November 14, 2019

  Actual Average (KJMR) Record (KJMR)
Temperature  
Mean Temperature 26 °F -  
Max Temperature 32 °F 38 °F 63 °F (1953)
Min Temperature 19 °F 19 °F -5 °F (2014)
Degree Days  
Heating Degree Days 40    
Moisture  
Dew Point 16 °F    
Average Humidity 65    
Maximum Humidity 80    
Minimum Humidity 47    
Precipitation  
Precipitation 0.00 in - - ()
Sea Level Pressure  
Sea Level Pressure 30.14 in    
Wind  
Wind Speed 7 mph ()    
Max Wind Speed 15 mph    
Max Gust Speed 18 mph    
Visibility 10.0 miles    
Events      
Averages and records for this station are not official NWS values.
T = Trace of Precipitation, MM = Missing Value Source: Averaged Metar Reports

Daily Weather History Graph

Daily Weather History Graph

Search for Another Location

Airport or City:

Astronomy

Nov. 14, 2019 Rise Set
Actual Time 7:10 AM CST 4:41 PM CST
Civil Twilight 6:38 AM CST 5:13 PM CST
Nautical Twilight 6:01 AM CST 5:49 PM CST
Astronomical Twilight 5:26 AM CST 6:24 PM CST
Moon 6:22 PM CST (11/14) 9:10 AM CST (11/14)
Length of Visible Light 10h 35m
Length of Day
9h 30m
Waning Gibbous, 95% of the Moon is Illuminated
Nov 14
Waning Gibbous
Nov 19
Last Quarter
Nov 26
New
Dec 4
First Quarter
Dec 11
Full

Hourly Weather History & Observations

Time (CST) Temp. Windchill Dew Point Humidity Pressure Visibility Wind Dir Wind Speed Gust Speed Precip Events Conditions
12:15 AM 23.0 °F 13.1 °F 15.8 °F 74% 30.09 in 10.0 mi NW 9.2 mph - N/A   Overcast
12:16 AM 23.0 °F 13.1 °F 15.8 °F 74% 30.09 in 10.0 mi NW 9.2 mph - N/A   Overcast
12:38 AM 23.0 °F 15.8 °F 15.8 °F 74% 30.10 in 10.0 mi NNW 5.8 mph - N/A   Overcast
12:56 AM 23.0 °F 13.9 °F 14.0 °F 68% 30.10 in 10.0 mi NW 8.1 mph - N/A   Overcast
1:15 AM 21.2 °F 14.9 °F 14.0 °F 74% 30.11 in 10.0 mi NW 4.6 mph - N/A   Overcast
1:16 AM 21.2 °F 13.6 °F 14.0 °F 74% 30.11 in 10.0 mi NW 5.8 mph - N/A   Overcast
1:35 AM 19.4 °F 14.3 °F 14.0 °F 80% 30.11 in 10.0 mi WNW 3.5 mph - N/A   Mostly Cloudy
1:36 AM 19.4 °F 14.3 °F 14.0 °F 80% 30.11 in 10.0 mi WNW 3.5 mph - N/A   Mostly Cloudy
1:55 AM 19.4 °F 14.3 °F 14.0 °F 80% 30.12 in 10.0 mi WNW 3.5 mph - N/A   Scattered Clouds
2:16 AM 21.2 °F 14.9 °F 12.2 °F 68% 30.13 in 10.0 mi NW 4.6 mph - N/A   Mostly Cloudy
2:36 AM 21.2 °F 12.6 °F 12.2 °F 68% 30.13 in 10.0 mi NW 6.9 mph - N/A   Overcast
2:55 AM 21.2 °F 12.6 °F 12.2 °F 68% 30.13 in 10.0 mi NW 6.9 mph - N/A   Overcast
2:56 AM 21.2 °F 13.6 °F 12.2 °F 68% 30.13 in 10.0 mi NW 5.8 mph - N/A   Overcast
3:15 AM 21.2 °F 14.9 °F 12.2 °F 68% 30.14 in 10.0 mi NW 4.6 mph - N/A   Overcast
3:19 AM 21.2 °F 14.9 °F 12.2 °F 68% 30.14 in 10.0 mi NNW 4.6 mph - N/A   Overcast
3:37 AM 21.2 °F 16.4 °F 12.2 °F 68% 30.14 in 10.0 mi NW 3.5 mph - N/A   Overcast
3:55 AM 21.2 °F 13.6 °F 12.2 °F 68% 30.14 in 10.0 mi WNW 5.8 mph - N/A   Overcast
4:15 AM 21.2 °F 14.9 °F 12.2 °F 68% 30.14 in 10.0 mi WNW 4.6 mph - N/A   Overcast
4:16 AM 21.2 °F 16.4 °F 12.2 °F 68% 30.14 in 10.0 mi NW 3.5 mph - N/A   Overcast
4:35 AM 21.2 °F 16.4 °F 12.2 °F 68% 30.15 in 10.0 mi WNW 3.5 mph - N/A   Overcast
4:58 AM 21.2 °F 14.9 °F 12.2 °F 68% 30.15 in 10.0 mi West 4.6 mph - N/A   Overcast
5:16 AM 21.2 °F 13.6 °F 12.2 °F 68% 30.15 in 10.0 mi NW 5.8 mph - N/A   Overcast
5:35 AM 21.2 °F 16.4 °F 12.2 °F 68% 30.15 in 10.0 mi NW 3.5 mph - N/A   Overcast
5:36 AM 21.2 °F 16.4 °F 12.2 °F 68% 30.15 in 10.0 mi NW 3.5 mph - N/A   Overcast
5:55 AM 21.2 °F 16.4 °F 14.0 °F 74% 30.16 in 10.0 mi West 3.5 mph - N/A   Overcast
5:56 AM 21.2 °F - 14.0 °F 74% 30.16 in 10.0 mi Calm Calm - N/A   Overcast
6:15 AM 21.2 °F - 14.0 °F 74% 30.16 in 10.0 mi Calm Calm - N/A   Overcast
6:37 AM 21.2 °F 16.4 °F 14.0 °F 74% 30.16 in 10.0 mi West 3.5 mph - N/A   Overcast
6:55 AM 21.2 °F 10.1 °F 14.0 °F 74% 30.17 in 10.0 mi West 10.4 mph - N/A   Overcast
7:15 AM 21.2 °F 12.6 °F 14.0 °F 74% 30.17 in 10.0 mi West 6.9 mph - N/A   Overcast
7:16 AM 21.2 °F 10.9 °F 14.0 °F 74% 30.17 in 10.0 mi West 9.2 mph - N/A   Overcast
7:35 AM 21.2 °F 10.1 °F 14.0 °F 74% 30.17 in 10.0 mi West 10.4 mph - N/A   Overcast
7:58 AM 21.2 °F 10.1 °F 14.0 °F 74% 30.17 in 10.0 mi WSW 10.4 mph - N/A   Overcast
8:16 AM 19.4 °F 7.2 °F 12.2 °F 74% 30.18 in 10.0 mi WSW 11.5 mph - N/A   Overcast
8:36 AM 19.4 °F 7.9 °F 12.2 °F 74% 30.18 in 10.0 mi West 10.4 mph - N/A   Overcast
8:55 AM 19.4 °F 7.2 °F 12.2 °F 74% 30.19 in 10.0 mi West 11.5 mph - N/A   Mostly Cloudy
8:56 AM 19.4 °F 7.2 °F 12.2 °F 74% 30.19 in 10.0 mi West 11.5 mph - N/A   Mostly Cloudy
9:18 AM 21.2 °F 8.9 °F 12.2 °F 68% 30.19 in 10.0 mi WSW 12.7 mph 16.1 mph N/A   Scattered Clouds
9:37 AM 23.0 °F 12.4 °F 12.2 °F 63% 30.19 in 10.0 mi WSW 10.4 mph - N/A   Scattered Clouds
10:15 AM 23.0 °F 11.7 °F 12.2 °F 63% 30.16 in 10.0 mi SW 11.5 mph - N/A   Clear
10:16 AM 23.0 °F 11.1 °F 12.2 °F 63% 30.16 in 10.0 mi SW 12.7 mph - N/A   Clear
10:35 AM 24.8 °F 13.4 °F 12.2 °F 59% 30.18 in 10.0 mi SW 12.7 mph 16.1 mph N/A   Clear
10:40 AM 24.8 °F 13.4 °F 12.2 °F 59% 30.18 in 10.0 mi WSW 12.7 mph - N/A   Clear
10:58 AM 26.6 °F 16.2 °F 12.2 °F 55% 30.18 in 10.0 mi SW 11.5 mph 16.1 mph N/A   Clear
11:15 AM 26.6 °F 16.2 °F 12.2 °F 55% 30.18 in 10.0 mi SW 11.5 mph - N/A   Clear
11:35 AM 26.6 °F 15.7 °F 12.2 °F 55% 30.17 in 10.0 mi SW 12.7 mph 17.3 mph N/A   Clear
11:36 AM 26.6 °F 16.2 °F 12.2 °F 55% 30.17 in 10.0 mi SW 11.5 mph 17.3 mph N/A   Clear
11:56 AM 28.4 °F 18.5 °F 12.2 °F 51% 30.16 in 10.0 mi SW 11.5 mph - N/A   Clear
12:17 PM 28.4 °F 19.7 °F 12.2 °F 51% 30.16 in 10.0 mi SW 9.2 mph - N/A   Clear
12:36 PM 28.4 °F 19.1 °F 12.2 °F 51% 30.15 in 10.0 mi SSW 10.4 mph 16.1 mph N/A   Clear
12:55 PM 30.2 °F 20.2 °F 12.2 °F 47% 30.14 in 10.0 mi SW 12.7 mph 17.3 mph N/A   Clear
12:56 PM 30.2 °F 20.2 °F 12.2 °F 47% 30.14 in 10.0 mi SW 12.7 mph 17.3 mph N/A   Clear
1:15 PM 30.2 °F 19.3 °F 12.2 °F 47% 30.13 in 10.0 mi SSW 15.0 mph - N/A   Mostly Cloudy
1:16 PM 30.2 °F 19.8 °F 12.2 °F 47% 30.13 in 10.0 mi SW 13.8 mph 17.3 mph N/A   Mostly Cloudy
1:38 PM 30.2 °F 19.3 °F 14.0 °F 51% 30.13 in 10.0 mi SW 15.0 mph - N/A   Overcast
1:57 PM 30.2 °F 19.3 °F 14.0 °F 51% 30.11 in 10.0 mi SSW 15.0 mph - N/A   Overcast
2:16 PM 30.2 °F 19.3 °F 14.0 °F 51% 30.11 in 10.0 mi SSW 15.0 mph 18.4 mph N/A   Overcast
2:35 PM 30.2 °F 20.2 °F 15.8 °F 55% 30.11 in 10.0 mi SSW 12.7 mph 17.3 mph N/A   Overcast
2:36 PM 30.2 °F 19.8 °F 15.8 °F 55% 30.11 in 10.0 mi SSW 13.8 mph 17.3 mph N/A   Overcast
2:55 PM 30.2 °F 20.8 °F 15.8 °F 55% 30.11 in 10.0 mi SSW 11.5 mph - N/A   Overcast
2:59 PM 30.2 °F 20.2 °F 15.8 °F 55% 30.11 in 10.0 mi SSW 12.7 mph - N/A   Overcast
3:35 PM 30.2 °F 20.8 °F 17.6 °F 60% 30.10 in 10.0 mi SSW 11.5 mph - N/A   Overcast
3:55 PM 30.2 °F 20.2 °F 17.6 °F 60% 30.10 in 10.0 mi SSW 12.7 mph 17.3 mph N/A   Overcast
3:56 PM 30.2 °F 20.2 °F 17.6 °F 60% 30.10 in 10.0 mi SW 12.7 mph - N/A   Overcast
4:20 PM 30.2 °F 20.2 °F 17.6 °F 60% 30.09 in 10.0 mi SSW 12.7 mph 18.4 mph N/A   Scattered Clouds
4:37 PM 30.2 °F 21.9 °F 17.6 °F 60% 30.09 in 10.0 mi SW 9.2 mph - N/A   Clear
4:56 PM 28.4 °F 19.1 °F 17.6 °F 64% 30.09 in 10.0 mi SW 10.4 mph - N/A   Clear
5:15 PM 28.4 °F 19.7 °F 17.6 °F 64% 30.10 in 10.0 mi SW 9.2 mph - N/A   Clear
5:35 PM 28.4 °F 21.2 °F 17.6 °F 64% 30.11 in 10.0 mi WSW 6.9 mph - N/A   Scattered Clouds
5:39 PM 28.4 °F 21.2 °F 19.4 °F 69% 30.11 in 10.0 mi SW 6.9 mph - N/A   Scattered Clouds
6:15 PM 30.2 °F 23.4 °F 19.4 °F 64% 30.12 in 10.0 mi SW 6.9 mph - N/A   Overcast
6:35 PM 30.2 °F 25.4 °F 19.4 °F 64% 30.13 in 10.0 mi WSW 4.6 mph - N/A   Overcast
6:36 PM 30.2 °F 25.4 °F 19.4 °F 64% 30.13 in 10.0 mi WSW 4.6 mph - N/A   Overcast
6:55 PM 30.2 °F 24.3 °F 19.4 °F 64% 30.12 in 10.0 mi SW 5.8 mph - N/A   Overcast
6:59 PM 30.2 °F 25.4 °F 19.4 °F 64% 30.12 in 10.0 mi SW 4.6 mph - N/A   Overcast
7:36 PM 30.2 °F 24.3 °F 19.4 °F 64% 30.12 in 10.0 mi SW 5.8 mph - N/A   Overcast
7:55 PM 30.2 °F 23.4 °F 19.4 °F 64% 30.11 in 10.0 mi SSW 6.9 mph - N/A   Overcast
8:15 PM 32.0 °F 24.8 °F 19.4 °F 60% 30.11 in 10.0 mi SSW 8.1 mph - N/A   Overcast
8:20 PM 32.0 °F 24.8 °F 19.4 °F 60% 30.11 in 10.0 mi SSW 8.1 mph - N/A   Overcast
8:37 PM 32.0 °F 25.6 °F 21.2 °F 64% 30.11 in 10.0 mi SSW 6.9 mph - N/A   Overcast
8:55 PM 32.0 °F 26.4 °F 21.2 °F 64% 30.12 in 10.0 mi SSW 5.8 mph - N/A   Overcast
9:15 PM 32.0 °F 27.5 °F 21.2 °F 64% 30.12 in 10.0 mi SSW 4.6 mph - N/A   Overcast
9:16 PM 32.0 °F 28.7 °F 21.2 °F 64% 30.12 in 10.0 mi SSW 3.5 mph - N/A   Overcast
9:35 PM 32.0 °F 27.5 °F 21.2 °F 64% 30.13 in 10.0 mi SSW 4.6 mph - N/A   Overcast
9:36 PM 32.0 °F 27.5 °F 21.2 °F 64% 30.13 in 10.0 mi SSW 4.6 mph - N/A   Overcast
9:58 PM 32.0 °F 24.2 °F 21.2 °F 64% 30.13 in 10.0 mi WSW 9.2 mph - N/A   Overcast
10:15 PM 32.0 °F 27.5 °F 21.2 °F 64% 30.14 in 10.0 mi WSW 4.6 mph - N/A   Overcast
10:35 PM 32.0 °F 28.7 °F 21.2 °F 64% 30.14 in 10.0 mi WSW 3.5 mph - N/A   Overcast
10:36 PM 32.0 °F 27.5 °F 21.2 °F 64% 30.14 in 10.0 mi WSW 4.6 mph - N/A   Overcast
10:55 PM 32.0 °F 28.7 °F 23.0 °F 69% 30.14 in 10.0 mi WSW 3.5 mph - N/A   Overcast
10:56 PM 32.0 °F 28.7 °F 23.0 °F 69% 30.14 in 10.0 mi WSW 3.5 mph - N/A   Overcast
11:19 PM 32.0 °F - 23.0 °F 69% 30.16 in 10.0 mi Calm Calm - N/A   Overcast
11:36 PM 32.0 °F - 23.0 °F 69% 30.16 in 10.0 mi Calm Calm - N/A   Overcast
11:56 PM 32.0 °F 27.5 °F 23.0 °F 69% 30.17 in 10.0 mi WNW 4.6 mph - N/A   Overcast